CAPE
1 1 1 1 0 0 0 0 0 0 0 0 0 0 0 0 0 0 0 0 0 0 0 0 0 0 0 0 0 0 0 0 0 0 0 0 0 0 0 0 0 0 0 0 0
2 3 1 1 0 0 0 0 0 0 0 0 0 0 0 0 0 0 0 0 0 0 0 0 0 0 0 0 0 0 0 0 0 0 0 0 0 0 0 0 0 0 0 0 0
3 3 3 1 0 0 0 0 0 0 0 0 0 0 0 0 0 0 0 0 0 0 0 0 0 0 0 0 0 0 0 0 0 0 0 0 0 0 0 0 0 0 0 0 0
4 4 3 2 0 0 0 0 0 0 0 0 0 0 0 0 0 0 0 0 0 0 0 0 0 0 0 0 0 0 0 0 0 0 0 0 0 0 0 0 0 0 0 0 0
5 3 1 0 0 0 0 0 0 0 0 0 0 0 0 0 0 0 0 0 0 0 0 0 0 0 0 0 0 0 0 0 0 0 0 0 0 0 0 0 0 0 0 0 0
5 2 2 0 0 0 0 0 0 0 0 0 0 0 0 0 0 0 0 0 0 0 0 0 0 0 0 0 0 0 0 0 0 0 0 0 0 0 0 0 0 0 0 0 0
2 1 0 0 0 0 0 0 0 0 0 0 0 0 0 0 0 0 0 0 0 0 0 0 0 0 0 0 0 0 0 0 0 0 0 0 0 0 0 0 0 0 0 0 0
0 0 0 0 0 0 0 0 0 0 0 0 0 0 0 0 0 0 0 0 0 0 0 0 0 0 0 0 0 0 0 0 0 0 0 0 0 0 0 0 0 0 0 0 0
1 0 0 0 0 0 0 0 0 0 0 0 0 0 0 0 0 0 0 0 0 0 0 0 0 0 0 0 0 0 0 0 0 0 0 0 0 0 0 0 0 0 0 0 0
0 0 0 0 0 0 0 0 0 0 0 0 0 0 0 0 0 0 0 0 0 0 0 0 0 0 0 0 0 0 0 0 0 0 0 0 0 0 0 0 0 0 0 0 0
0 0 0 0 0 0 0 0 0 0 0 0 0 0 0 0 0 0 0 0 0 0 0 0 0 0 0 0 0 0 0 0 0 0 0 0 0 0 0 0 0 0 0 0 0
0 0 0 0 0 0 0 0 0 0 0 0 0 0 0 0 0 0 0 0 0 0 0 0 0 0 0 0 0 0 0 0 0 0 0 0 0 0 0 0 0 0 0 0 0
0 0 0 0 0 0 0 0 0 0 0 0 0 0 0 0 0 0 0 0 0 0 0 0 0 0 0 0 0 0 0 0 0 0 0 0 0 0 0 0 0 0 0 0 0
0 0 0 0 0 0 0 0 0 0 0 0 0 0 0 0 0 0 0 0 0 0 0 0 0 0 0 0 0 0 0 0 0 0 0 0 0 0 0 0 0 0 0 0 0
0 0 0 0 0 0 0 0 0 0 0 0 0 0 0 0 0 0 0 0 0 0 0 0 0 0 0 0 0 0 0 0 0 0 0 0 0 0 0 0 0 0 0 0 0
0 0 0 0 0 0 0 0 0 0 0 0 0 0 0 0 0 0 0 0 0 0 0 0 0 0 0 0 0 0 0 0 0 0 0 0 0 0 0 0 0 0 0 0 0
0 0 0 0 0 0 0 0 0 0 0 0 0 0 0 0 0 0 0 0 0 0 0 0 0 0 0 0 0 0 0 0 0 0 0 0 0 0 0 0 0 0 0 0 0
0 0 0 0 0 0 0 0 0 0 0 0 0 0 0 0 0 0 0 0 0 0 0 0 0 0 0 0 0 0 0 0 0 0 0 0 0 0 0 0 0 0 0 0 0
0 0 0 0 0 0 0 0 0 0 0 0 0 0 0 0 0 0 0 0 0 0 0 0 0 0 0 0 0 0 0 0 0 0 0 0 0 0 0 0 0 0 0 0 0
0 0 0 0 0 0 0 0 0 0 0 0 0 0 0 0 0 0 0 0 0 0 0 0 0 0 0 0 0 0 0 0 0 0 0 0 0 0 0 0 0 0 0 0 0
0 0 0 0 0 0 0 0 0 0 0 0 0 0 0 0 0 0 0 0 0 0 0 0 0 0 0 0 0 0 0 0 0 0 0 0 0 0 0 0 0 0 0 0 0
0 0 0 0 0 0 0 0 0 0 0 0 0 0 0 0 0 0 0 0 0 0 0 0 0 0 0 0 0 0 0 0 0 0 0 0 0 0 0 0 0 0 0 0 0
0 0 0 0 0 0 0 0 0 0 0 0 0 0 0 0 0 0 0 0 0 0 0 0 0 0 0 0 0 0 0 0 0 0 0 0 0 0 0 0 0 0 0 0 0
0 0 0 0 0 0 0 0 0 0 0 0 0 0 0 0 0 0 0 0 0 0 0 0 0 0 0 0 0 0 0 0 0 0 0 0 0 0 0 0 0 0 0 0 0
0 0 0 0 0 0 0 0 0 0 0 0 0 0 0 0 0 0 0 0 0 0 0 0 0 0 0 0 0 0 0 0 0 0 0 0 0 0 0 0 0 0 0 0 0
0 0 0 0 0 0 0 0 0 0 0 0 0 0 0 0 0 0 0 0 0 0 0 0 0 0 0 0 0 0 0 0 0 0 0 0 0 0 0 0 0 0 0 0 0
0 0 0 0 0 0 0 0 0 0 0 0 0 0 0 0 0 0 0 0 0 0 0 0 0 0 0 0 0 0 0 0 0 0 0 0 0 0 0 0 0 0 0 0 0
CIN
0 0 0 0 0 0 0 0 0 0 0 0 0 0 0 0 0 0 0 0 0 0 0 0 0 0 0 0 0 0 0 0 0 0 0 0 0 0 0 0 0 0 0 0 0
0 0 0 0 0 0 0 0 0 0 0 0 0 0 0 0 0 0 0 0 0 0 0 0 0 0 0 0 0 0 0 0 0 0 0 0 0 0 0 0 0 0 0 0 0
0 0 0 0 0 0 0 0 0 0 0 0 0 0 0 0 0 0 0 0 0 0 0 0 0 0 0 0 0 0 0 0 0 0 0 0 0 0 0 0 0 0 0 0 0
0 0 0 0 0 0 0 0 0 0 0 0 0 0 0 0 0 0 0 0 0 0 0 0 0 0 0 0 0 0 0 0 0 0 0 0 0 0 0 0 0 0 0 0 0
0 0 0 0 0 0 0 0 0 0 0 0 0 0 0 0 0 0 0 0 0 0 0 0 0 0 0 0 0 0 0 0 0 0 0 0 0 0 0 0 0 0 0 0 0
0 0 0 0 0 0 0 0 0 0 0 0 0 0 0 0 0 0 0 0 0 0 0 0 0 0 0 0 0 0 0 0 0 0 0 0 0 0 0 0 0 0 0 0 0
0 0 0 0 0 0 0 0 0 0 0 0 0 0 0 0 0 0 0 0 0 0 0 0 0 0 0 0 0 0 0 0 0 0 0 0 0 0 0 0 0 0 0 0 0
0 0 0 0 0 0 0 0 0 0 0 0 0 0 0 0 0 0 0 0 0 0 0 0 0 0 0 0 0 0 0 0 0 0 0 0 0 0 0 0 0 0 0 0 0
0 0 0 0 0 0 0 0 0 0 0 0 0 0 0 0 0 0 0 0 0 0 0 0 0 0 0 0 0 0 0 0 0 0 0 0 0 0 0 0 0 0 0 0 0
0 0 0 0 0 0 0 0 0 0 0 0 0 0 0 0 0 0 0 0 0 0 0 0 0 0 0 0 0 0 0 0 0 0 0 0 0 0 0 0 0 0 0 0 0
0 0 0 0 0 0 0 0 0 0 0 0 0 0 0 0 0 0 0 0 0 0 0 0 0 0 0 0 0 0 0 0 0 0 0 0 0 0 0 0 0 0 0 0 0
0 0 0 0 0 0 0 0 0 0 0 0 0 0 0 0 0 0 0 0 0 0 0 0 0 0 0 0 0 0 0 0 0 0 0 0 0 0 0 0 0 0 0 0 0
0 0 0 0 0 0 0 0 0 0 0 0 0 0 0 0 0 0 0 0 0 0 0 0 0 0 0 0 0 0 0 0 0 0 0 0 0 0 0 0 0 0 0 0 0
0 0 0 0 0 0 0 0 0 0 0 0 0 0 0 0 0 0 0 0 0 0 0 0 0 0 0 0 0 0 0 0 0 0 0 0 0 0 0 0 0 0 0 0 0
0 0 0 0 0 0 0 0 0 0 0 0 0 0 0 0 0 0 0 0 0 0 0 0 0 0 0 0 0 0 0 0 0 0 0 0 0 0 0 0 0 0 0 0 0
0 0 0 0 0 0 0 0 0 0 0 0 0 0 0 0 0 0 0 0 0 0 0 0 0 0 0 0 0 0 0 0 0 0 0 0 0 0 0 0 0 0 0 0 0
0 0 0 0 0 0 0 0 0 0 0 0 0 0 0 0 0 0 0 0 0 0 0 0 0 0 0 0 0 0 0 0 0 0 0 0 0 0 0 0 0 0 0 0 0
0 0 0 0 0 0 0 0 0 0 0 0 0 0 0 0 0 0 0 0 0 0 0 0 0 0 0 0 0 0 0 0 0 0 0 0 0 0 0 0 0 0 0 0 0
0 0 0 0 0 0 0 0 0 0 0 0 0 0 0 0 0 0 0 0 0 0 0 0 0 0 0 0 0 0 0 0 0 0 0 0 0 0 0 0 0 0 0 0 0
0 0 0 0 0 0 0 0 0 0 0 0 0 0 0 0 0 0 0 0 0 0 0 0 0 0 0 0 0 0 0 0 0 0 0 0 0 0 0 0 0 0 0 0 0
0 0 0 0 0 0 0 0 0 0 0 0 0 0 0 0 0 0 0 0 0 0 0 0 0 0 0 0 0 0 0 0 0 0 0 0 0 0 0 0 0 0 0 0 0
0 0 0 0 0 0 0 0 0 0 0 0 0 0 0 0 0 0 0 0 0 0 0 0 0 0 0 0 0 0 0 0 0 0 0 0 0 0 0 0 0 0 0 0 0
0 0 0 0 0 0 0 0 0 0 0 0 0 0 0 0 0 0 0 0 0 0 0 0 0 0 0 0 0 0 0 0 0 0 0 0 0 0 0 0 0 0 0 0 0
0 0 0 0 0 0 0 0 0 0 0 0 0 0 0 0 0 0 0 0 0 0 0 0 0 0 0 0 0 0 0 0 0 0 0 0 0 0 0 0 0 0 0 0 0
0 0 0 0 0 0 0 0 0 0 0 0 0 0 0 0 0 0 0 0 0 0 0 0 0 0 0 0 0 0 0 0 0 0 0 0 0 0 0 0 0 0 0 0 0
0 0 0 0 0 0 0 0 0 0 0 0 0 0 0 0 0 0 0 0 0 0 0 0 0 0 0 0 0 0 0 0 0 0 0 0 0 0 0 0 0 0 0 0 0
0 0 0 0 0 0 0 0 0 0 0 0 0 0 0 0 0 0 0 0 0 0 0 0 0 0 0 0 0 0 0 0 0 0 0 0 0 0 0 0 0 0 0 0 0
Wind_Speed
27 26 25 21 18 19 23 22 21 19 17 15 14 14 14 15 14 13 14 14 14 11 12 12 18 18 17 18 17 14 14 12 13 16 16 18 11 12 12 12 14 16 16 18 5
28 26 25 22 19 18 21 23 22 21 19 17 16 15 15 15 12 13 14 14 13 11 12 19 18 20 17 18 16 15 14 12 12 18 17 17 15 14 13 12 15 16 18 11 4
28 27 25 23 22 20 19 19 19 19 20 20 19 17 16 12 14 14 14 14 13 12 13 13 16 17 16 17 16 14 13 15 18 20 17 17 17 16 13 14 16 16 15 7 3
28 27 26 24 24 23 22 20 18 15 14 18 20 19 17 13 14 15 15 14 13 11 13 17 18 17 17 16 16 15 11 13 19 18 16 14 17 19 13 15 19 23 9 5 2
28 28 27 26 25 25 23 21 19 16 13 12 17 19 12 13 13 13 13 13 12 13 16 16 18 18 16 15 14 12 12 19 22 25 12 13 11 16 14 26 24 22 16 3 1
28 28 28 27 27 26 24 22 21 18 15 13 12 16 13 12 13 13 12 12 13 15 17 17 16 15 14 14 14 13 8 7 7 4 9 7 3 14 1 17 23 20 29 25 19
29 29 29 28 28 26 24 23 21 19 16 13 13 14 14 13 14 13 13 13 13 14 14 14 15 16 14 14 14 12 13 12 19 17 13 13 11 10 14 23 28 30 31 32 31
28 28 28 28 27 26 25 23 20 15 12 13 14 15 14 13 13 12 12 12 13 14 14 14 15 15 13 14 16 16 16 19 18 19 14 13 8 10 21 22 25 25 29 32 34
27 27 27 26 25 25 24 20 17 16 16 15 15 14 14 14 14 14 13 12 13 12 15 15 16 15 15 16 15 18 16 18 12 20 12 12 9 13 24 23 27 30 31 32 33
26 27 27 25 23 24 21 17 16 15 15 14 15 14 15 15 16 17 13 12 14 14 14 15 16 14 16 17 13 15 17 15 11 13 20 17 21 22 20 21 21 23 27 32 33
26 26 25 23 21 21 18 16 16 16 17 15 14 14 15 20 16 15 15 13 14 15 14 17 15 13 14 12 13 13 13 11 10 13 20 21 18 20 21 22 23 22 22 23 28
28 26 24 22 20 20 18 16 16 15 16 17 15 16 16 16 16 15 15 15 14 13 15 16 13 13 14 13 14 14 14 12 14 16 17 15 18 19 22 22 22 21 21 19 19
28 26 25 23 21 19 19 18 18 15 16 17 17 17 18 16 15 15 15 15 15 14 15 13 14 18 15 16 17 16 14 16 15 20 15 15 16 19 20 21 22 22 20 19 19
28 26 25 23 17 19 19 22 19 14 16 19 18 18 18 15 16 15 16 16 17 17 17 16 16 17 16 18 17 21 16 17 18 20 14 15 15 16 19 21 22 22 22 20 20
27 26 25 22 18 19 21 22 17 15 17 17 17 17 17 16 16 16 18 17 16 18 18 17 19 19 19 19 18 19 19 21 19 18 20 16 13 14 15 19 20 21 21 21 21
27 26 24 20 19 20 22 19 15 16 16 16 17 19 19 17 16 17 18 18 18 19 18 18 20 20 18 20 21 20 21 22 20 18 19 17 13 13 14 13 17 19 20 21 22
25 24 22 20 21 22 21 16 17 16 17 18 17 19 20 17 17 17 18 20 19 20 20 23 20 20 19 22 20 21 24 24 23 20 20 18 16 17 13 13 14 16 19 20 21
23 21 21 23 23 21 18 18 18 17 17 19 19 19 16 20 18 19 17 19 21 20 20 21 21 20 19 20 22 23 21 22 26 24 22 17 17 17 12 12 13 15 17 19 21
22 19 23 28 22 17 18 20 18 19 19 21 19 19 18 18 19 18 19 20 20 22 20 22 20 20 20 21 21 21 23 19 23 24 24 20 18 14 13 14 14 15 17 19 20
18 19 24 30 19 18 19 18 17 19 19 19 20 21 21 23 20 20 20 21 22 22 20 20 25 20 21 21 20 20 19 24 22 27 28 24 21 20 18 17 16 16 17 18 20
19 19 26 28 18 21 19 18 16 18 19 20 20 20 21 23 22 22 21 21 24 24 21 23 22 23 22 20 21 22 22 22 22 23 27 27 25 24 18 17 16 16 17 18 20
19 21 28 22 21 20 18 17 17 20 21 19 18 20 21 23 23 22 21 22 26 23 24 23 24 28 25 21 23 21 23 22 25 27 25 26 27 20 15 16 17 18 19 19 20
20 21 24 19 20 18 15 16 18 20 21 20 20 21 22 22 22 22 21 22 26 24 24 25 25 32 29 23 21 22 23 26 26 25 28 30 28 18 18 18 19 19 20 21 23
20 21 22 20 17 15 15 18 17 20 21 19 22 21 22 22 23 23 24 23 25 25 25 23 24 26 30 27 28 29 33 31 28 30 31 31 24 22 21 20 20 22 23 24 26
21 19 18 20 21 17 17 18 19 21 20 23 21 22 23 24 26 25 25 27 24 27 24 24 29 28 28 31 30 33 34 33 32 30 33 27 23 22 22 22 22 23 25 26 28
19 17 17 17 17 19 20 20 20 20 22 22 22 23 24 24 24 29 28 26 25 25 26 28 29 32 34 31 33 34 34 30 30 30 26 23 26 24 24 23 24 26 28 30 33
19 16 16 20 18 19 20 19 20 19 20 20 22 25 25 25 27 26 24 23 24 29 30 30 29 32 35 33 34 34 30 25 25 26 24 29 27 26 28 29 28 28 32 36 38
Wind_Direction
307 304 299 290 281 280 284 280 276 271 263 258 255 250 250 253 239 125 134 119 93 168 216 225 5 316 42 5 357 1 336 335 340 334 340 339 358 349 345 345 334 318 317 309 23
306 303 299 291 284 277 280 281 277 272 265 258 253 250 251 254 169 139 140 127 125 185 104 19 17 340 27 18 14 359 341 337 348 324 329 342 350 346 339 332 323 316 304 316 12
305 302 298 292 288 281 277 273 269 265 265 264 259 253 248 216 117 111 107 116 116 117 95 89 57 44 49 39 26 14 356 336 319 316 328 331 336 344 343 322 318 315 302 317 331
304 302 297 293 291 287 282 274 263 252 243 253 265 260 249 109 84 114 88 90 105 144 97 22 14 37 40 45 49 25 37 352 317 334 338 340 337 328 334 319 309 280 306 312 329
302 301 298 295 292 290 284 275 264 250 235 220 242 267 22 93 107 110 76 80 89 76 40 47 28 30 34 51 49 59 47 331 310 304 357 350 342 337 329 276 292 278 279 296 264
300 300 298 296 294 290 283 275 265 251 232 209 191 238 83 89 84 73 69 61 68 41 20 34 48 54 50 54 53 68 103 174 194 100 9 5 11 348 205 318 285 280 244 190 174
302 301 300 298 296 292 286 278 265 247 220 179 140 101 108 95 27 46 54 54 46 32 47 52 43 38 47 49 55 70 71 72 23 30 53 48 54 48 219 246 240 244 230 217 207
304 302 301 299 295 294 291 285 270 242 77 78 77 80 83 87 41 57 52 54 27 24 28 45 40 40 54 49 29 37 45 29 32 20 46 47 124 153 303 284 260 259 243 234 218
303 301 299 296 293 295 293 285 322 16 31 54 39 43 52 335 47 46 46 63 32 35 16 25 16 31 35 28 33 21 32 22 58 10 64 54 177 254 291 283 259 259 256 247 231
303 301 299 296 292 295 290 315 351 17 20 26 16 37 9 24 355 359 32 41 33 36 24 17 17 33 28 23 36 19 16 27 51 53 358 2 281 309 310 328 317 294 276 258 246
305 302 299 294 292 296 306 344 340 350 350 16 23 23 12 333 353 360 6 22 11 11 18 8 12 28 28 48 46 33 23 27 42 33 358 343 350 334 327 337 329 319 308 285 264
308 305 300 294 292 307 351 351 352 354 3 5 4 354 349 347 351 351 356 1 7 13 5 357 14 21 23 31 23 23 24 34 26 11 8 18 356 334 343 345 338 329 322 311 294
311 308 306 301 307 345 2 352 337 355 358 0 359 354 346 345 350 347 349 350 350 355 354 2 359 345 357 357 357 7 13 11 14 355 5 359 355 343 344 348 347 344 335 331 319
313 312 314 307 351 341 351 327 336 359 349 344 348 352 349 353 355 347 343 343 339 340 342 346 347 350 351 345 351 338 359 356 352 347 6 353 350 345 344 345 346 343 344 336 333
314 317 323 348 353 349 337 323 342 353 341 347 352 354 351 0 357 351 343 341 338 331 332 334 333 333 334 338 344 337 341 335 337 336 334 339 352 346 346 340 343 343 344 345 347
317 322 333 352 356 349 328 333 354 343 340 347 350 345 345 350 352 346 343 340 337 330 329 325 323 325 327 330 331 332 332 333 335 332 329 331 333 346 351 1 354 352 351 349 351
311 321 354 359 345 334 334 353 339 342 342 337 342 338 340 355 355 352 351 345 344 338 334 325 325 323 326 323 329 328 325 320 320 322 322 326 321 324 346 359 360 359 357 354 356
299 334 356 356 331 336 350 341 332 338 337 338 341 338 349 343 349 347 348 345 343 343 337 332 327 327 327 325 321 322 322 315 310 313 315 320 313 315 337 354 357 358 354 354 353
321 354 354 331 350 9 344 326 330 331 336 332 339 338 338 344 345 345 342 339 341 342 335 333 330 331 327 325 324 320 315 321 310 309 304 307 311 316 320 326 334 342 347 347 348
357 351 345 329 5 354 337 332 334 339 341 341 331 336 330 330 335 337 334 338 333 337 337 333 323 332 329 327 325 318 322 311 310 300 297 300 296 296 294 302 314 326 336 341 345
356 346 344 332 3 342 331 337 344 346 346 340 336 332 331 329 331 327 328 334 331 328 335 328 323 322 328 326 322 321 315 311 308 302 296 293 294 300 291 296 304 317 326 332 336
352 334 342 346 332 336 332 336 345 339 343 344 344 337 331 329 327 326 325 327 331 332 326 330 321 313 314 319 320 318 314 312 301 299 298 296 292 307 303 300 303 307 314 323 330
346 344 351 352 327 330 345 346 350 343 343 340 337 338 335 330 326 327 327 333 332 332 329 328 320 314 315 321 322 314 315 314 306 300 292 290 291 305 305 303 304 305 310 314 318
353 339 350 359 358 351 344 339 341 351 350 348 338 336 331 330 330 324 324 330 332 331 329 329 318 311 306 310 314 307 303 306 304 295 294 291 290 295 299 301 305 308 310 311 313
352 348 352 337 342 346 341 338 336 333 340 340 337 339 332 324 324 322 325 323 328 328 327 324 311 311 308 306 306 302 300 301 297 294 291 292 290 294 299 300 303 310 312 312 313
346 348 356 348 342 340 337 334 335 336 336 334 335 334 334 327 326 319 323 324 321 325 324 321 311 312 306 306 304 299 302 301 300 296 292 289 289 297 300 304 299 307 309 309 309
355 357 350 339 337 335 334 336 336 337 339 341 336 332 330 330 326 322 318 314 311 314 314 314 311 309 304 307 305 297 303 306 307 307 296 287 293 299 297 297 301 303 306 306 307